{"data":{"norad_id":48994,"intl_designator":"2021-060AD","name":"ONEWEB-0276","alt_names":[],"object_type":"PAYLOAD","status":"ACTIVE","operator":null,"country":"UK","launch_date":"2021-07-01","launch_site_code":"VOSTO","launch_vehicle":null,"mission":null,"orbit_class":"UNKNOWN","rcs_meters":null,"size_class":null,"mass_kg":null,"dimensions":null,"purposes":["comms"],"wikipedia_slug":null,"has_3d_model":false,"image_url":null,"decayed_at":null,"tle_current":{"epoch":"2026-05-24T15:03:45.605952Z","epoch_age_seconds":107339,"freshness":"FRESH","line1":"1 48994U 21060AD  26144.62761118 -.00000054  00000+0 -17435-3 0  9995","line2":"2 48994  87.9106 233.4528 0002118  96.8228 263.3144 13.16592833236477","mean_motion":13.16592833,"eccentricity":0.0002118,"inclination_deg":87.9106,"raan_deg":233.4528,"arg_perigee_deg":96.8228,"mean_anomaly_deg":263.3144,"bstar":-0.00017435,"rev_number":23647,"period_min":109.37322184253,"perigee_km":1196.1575542788,"apogee_km":1199.3667051501,"semimajor_km":7575.8991297144,"source":"CELESTRAK","updated_at":"2026-05-25T13:38:22.478297Z"}}}